KLM770 EGLC-EHAM

Flight info

Callsign KLM770
Flight time N/A
Altitude 21000
Route ODUKU M84 CLN P44 RATLO M197 REDFA
Aircraft E75L/M-SDE3GILORVW/S

Departure

Time 2026-05-07 22:37
Airport London City Airport (EGLC)

Arrival

Time N/A
Airport Amsterdam Airport Schiphol (EHAM)
Time Latitude Longitude Altitude Speed Heading
2026-05-07 22:00 51.50410 0.05344 22 ft 0 kts 326°
2026-05-07 22:30 51.50410 0.05343 22 ft 1 kts 326°
2026-05-07 22:30 51.50427 0.05330 23 ft 4 kts 334°
2026-05-07 22:30 51.50443 0.05316 23 ft 0 kts 300°
2026-05-07 22:30 51.50437 0.05273 22 ft 6 kts 237°
2026-05-07 22:31 51.50435 0.05262 22 ft 1 kts 277°
2026-05-07 22:31 51.50444 0.05237 22 ft 4 kts 304°
2026-05-07 22:31 51.50453 0.05186 23 ft 6 kts 278°
2026-05-07 22:31 51.50455 0.05097 22 ft 9 kts 271°
2026-05-07 22:32 51.50463 0.04982 23 ft 11 kts 278°
2026-05-07 22:32 51.50466 0.04846 22 ft 13 kts 272°
2026-05-07 22:32 51.50470 0.04688 22 ft 15 kts 272°
2026-05-07 22:32 51.50475 0.04537 22 ft 7 kts 274°
2026-05-07 22:33 51.50487 0.04450 22 ft 8 kts 307°
2026-05-07 22:33 51.50493 0.04442 24 ft 0 kts 337°
2026-05-07 22:35 51.50498 0.04440 23 ft 3 kts 342°
2026-05-07 22:35 51.50540 0.04444 22 ft 6 kts 22°
2026-05-07 22:36 51.50555 0.04483 22 ft 1 kts 89°
2026-05-07 22:36 51.50555 0.04526 22 ft 26 kts 91°
2026-05-07 22:37 51.50531 0.05291 22 ft 109 kts 92°
2026-05-07 22:37 51.50492 0.06863 232 ft 155 kts 92°
2026-05-07 22:37 51.50453 0.08516 1444 ft 150 kts 88°
2026-05-07 22:37 51.50824 0.10181 2202 ft 171 kts 53°
2026-05-07 22:38 51.51844 0.11202 2795 ft 180 kts
2026-05-07 22:38 51.53101 0.10684 2702 ft 203 kts 321°
2026-05-07 22:38 51.53965 0.09025 3034 ft 181 kts 305°
2026-05-07 22:38 51.54665 0.07379 3058 ft 179 kts 302°
2026-05-07 22:39 51.55310 0.05677 3064 ft 175 kts 297°
2026-05-07 22:39 51.55882 0.03982 3113 ft 172 kts 299°
2026-05-07 22:39 51.56436 0.02246 3101 ft 181 kts 295°
2026-05-07 22:39 51.56772 0.00985 3203 ft 179 kts 283°